DMSP 5D-2 F13 DEB

Satellite information

Favourite Embed

Satellite Type and Status

DEBRISIN ORBIT

Key statistics

Satellite DMSP 5D-2 F13 DEB at a glance.

Uptime

11223

Days in orbit

Revolutions

≈ 13.7

Per day

Orbit

SSO

Sun Synchronous Orbit

Inclination

98.9

Latest

Satellite identification and parameters

Extended collection of information and parameters for DMSP 5D-2 F13 DEB.

Object identification

Identified? True

Debris? True

Object name: DMSP 5D-2 F13 DEB

International designator: 1995-015AN

Object number (NORAD): 40436

Object ID (CCSDS): 40436

Country: UNITED STATES OF AMERICA (US)

Current information (Y/N): Y

RCS size: SMALL

Orbital parameters

Period: 104.999 minutes

Inclination: 98.8781 deg

SMA: 7372.559 km

Apoapsis: 1163.094 km

Periapsis: 825.755 km

RAAN: 71.3653 deg

Eccentricy: 0.02287806

Argument of periapsis: 269.3393 deg

Mean anomaly: 88.1539 deg

Mean motion: 13.71435329 rev/day

Mean motion (dot): 0.00001104 rev/day2

B* drag term: 0.0010580012 1/REarth

Two-line elements (TLE)

Creation date: Dec. 9, 2025, 5:41 p.m.

Reference frame: TEME

Reference center: EARTH

Epoch: Dec. 9, 2025, 11:25 a.m. UTC

TLE line 0: 0 DMSP 5D-2 F13 DEB

TLE line 1: 1 40436U 95015AN 25343.47575499 .00001104 00000-0 10580-2 0 9996

TLE line 2: 2 40436 98.8781 71.3653 0228781 269.3393 88.1539 13.71435329538275

Live tracking on map

Real-time ground track for satellite DMSP 5D-2 F13 DEB.

In-orbit conjunctions

A list of the most updated potential collisions computed for object DMSP 5D-2 F13 DEB.

Target Orbit TCA Probability of collision Miss distance Type
COSMOS 970 DEB LEO 2025-12-01 04:06:16 0.0001256235 340.0 (m) DEBRIS
SECOR 1B LEO 2025-11-27 11:42:27 0.0001283719 863.0 (m) PAYLOAD
COSMOS 1275 DEB LEO 2024-12-13 12:19:53 0.0001964344 138.0 (m) DEBRIS
CZ-6A DEB LEO 2024-10-25 04:53:52 0.0004367579 88.0 (m) DEBRIS

Associated space launch

Military meteorological satellite

DMSP 5D-2 F13 DEB was lifted into orbit during the mission ‘Atlas E | DMSP-5D2 F13’, on board a Atlas E space rocket.

The launch took place on March 24, 1995, 2:05 p.m. from Space Launch Complex 3W.

For more information about the launch, click the button.

Launch to space Atlas E | DMSP-5D2 F13
Atlas E | DMSP-5D2 F13

Agency: N/A

Status: Launch Successful

Launch date: March 24, 1995, 2:05 p.m. UTC

Rocket: Atlas E

Launch pad: Space Launch Complex 3W

Location: Vandenberg SFB, CA, USA

...

Latest news about this satellite

There are no fresh news available about this satellite. Check back as we update our databases every day.


Newsletter sign-up

Weekly statistics, charts and insights to help you stay on top of the space industry.